Powrót do katalogu

STARLINK-30233

AktywnyŁącznośćVLEO
NORAD 57302·PAYLOAD·🇺🇸 United States

Wystrzelony Jul 10, 2023 z Cape Canaveral Space Force Station

Loading…

Następne Przeloty (najbliższe 24 godziny)

TLE

ŚwieżeSource: CelesTrak SupGP

Epoka: Sep 14, 2026, 22:03 UTC

1 57302C 23096N   26257.91923611  .00549190  00000+0  66457-2 0  2575
2 57302  42.9998 229.4314 0001982 267.0132 168.3896 15.59500576    11

Śledź STARLINK-30233 w czasie rzeczywistym z AllMySat

Download on the App Store